Regional Weather Roundup
Issued by NWS Grand Forks, ND

Home | Current Version | Previous Version | Text Only | Print | Product List | Glossary Off
Versions: 1 2 3 4 5 6 7 8 9 10 11 12 13 14 15 16 17 18 19 20 21 22 23 24 25 26 27 28 29 30 31 32 33 34 35 36 37 38 39 40 41 42 43 44 45 46 47 48 49 50

000
ASUS43 KFGF 020110
RWRFGF
PRAIRIE TO PINES  WEATHER ROUNDUP
NATIONAL WEATHER SERVICE EASTERN NORTH DAKOTA/GRAND FORKS ND
800 PM CDT WED APR 01 2015

 **SATELLITE DATA USED TO AUGMENT SKY COVER AT AUTOMATED STATIONS**
 *****  WEATHER ACROSS EASTERN NORTH DAKOTA  *****

CITY           SKY/WX    TMP DP  RH WIND       PRES   REMARKS
GRAND FORKS    MOCLDY    53  39  59 W24G30    29.52R
GRAND FRKS AFB CLOUDY    51  38  60 W22G35    29.53R
GRAND FRKS NWS   N/A     50 N/A N/A W26         N/A
DEVILS LAKE    PTCLDY    48  34  57 W20G25    29.58R
FARGO          MOCLDY    60  35  39 NW21G30   29.53R
WAHPETON ARPT  PTCLDY    55  34  44 NW10      29.55R
$$

 ***** WEATHER ACROSS CENTRAL AND WESTERN NORTH DAKOTA  *****

CITY           SKY/WX    TMP DP  RH WIND       PRES   REMARKS
BISMARCK       PTCLDY    55  21  26 NW18G30   29.68R
MINOT          CLEAR     50  21  32 W18       29.61R
JAMESTOWN      CLOUDY    54  31  41 NW17G29   29.61R
MINOT AFB      CLEAR     50  26  39 W20       29.60R
GARRISON         N/A     50  23  34 NW17G25   29.65R
WILLISTON      MOCLDY    50  21  32 W21G36    29.66S
DICKINSON      PTCLDY    48  21  34 W17G23    29.71R
HETTINGER      PTCLDY    50  10  20 W20G30    29.76R
$$

 *****  OTHER AIRPORT OBSERVATIONS IN OUR AREA  *****

CITY           SKY/WX    TMP DP  RH WIND       PRES   REMARKS
WALHALLA         N/A     48  39  71 NW13G24   29.50R
GRAFTON AIRPOR NOT AVBL
VALLEY CITY AR CLOUDY    55  36  47 NW26G33   29.59R
CANDO          NOT AVBL
CAVALIER APRT  MOCLDY    50  41  71 W23       29.50R
GWINNER        MOCLDY    59  32  36 W20G26      N/A
ROLLA          FAIR      46  30  53 W20G30    29.55R
 ***** THE ABOVE OBSERVATIONS ARE NON NWS ARE NOT QUALITY
       CONTROLLED AND MAY MIS-REPORT RAIN FOR SNOW...
$$

  *****  WEATHER ACROSS NORTHERN MINNESOTA  *****

CITY           SKY/WX    TMP DP  RH WIND       PRES   REMARKS
FLAG ISLAND    PTCLDY    52  37  58 W14       29.33R
WARROAD        PTCLDY    54  43  66 W14G21    29.40R
ROSEAU         MOCLDY    52  43  71 W12G20    29.41R
HALLOCK        MOCLDY    54  43  66 W22G32    29.47R
THF RVR FALLS  PTCLDY    54  43  66 W9        29.49R
BAUDETTE       MOCLDY    56  41  57 W16G22    29.36R
WASKISH        MOCLDY    45  36  70 SW13        N/A
CROOKSTON      MOCLDY    55  43  62 W25G31    29.52R
STEPHEN NDAWN    N/A     54  43  66 NW23        N/A
GREENBUSH NDAW   N/A     50  43  76 W8          N/A
$$
  *****  WEATHER ACROSS CENTRAL AND WEST MINNESOTA  *****

CITY           SKY/WX    TMP DP  RH WIND       PRES   REMARKS
FOSSTON        PTCLDY    54  43  66 W15G22    29.50R
BEMIDJI        MOCLDY    57  40  54 W20G25    29.44R
PARK RAPIDS    MOCLDY    59  39  47 W22G30    29.46R
ELBOW LAKE     FAIR      58  41  52 NW20      29.51F
WADENA         MOCLDY    57  41  54 W17G28    29.47S
DETROIT LAKES  PTCLDY    55  41  58 NW20G25   29.53R
MOORHEAD       MOCLDY    61  34  36 NW21G28   29.54R
FERGUS FALLS   PTCLDY    57  37  47 NW16      29.54R
MORRIS MN      MOCLDY    61  43  51 NW21G26   29.49F
STAPLES        CLOUDY    57  37  47 W21G29    29.46R
$$
  *****  WEATHER ELSEWHERE ACROSS MINNESOTA  *****

CITY           SKY/WX    TMP DP  RH WIND       PRES   REMARKS
DULUTH         MOCLDY    38  32  79 SE13      29.45S
INTRNTL FALLS  CLOUDY    56  36  47 SE6       29.33F
ELY            MOCLDY    45  30  57 E5        29.43S
CLOQUET        MOCLDY    37  32  81 SE6       29.44S
WHEATON        PTCLDY    57  36  44 W16G23    29.56R
BRAINERD       CLOUDY    63  36  36 W10G24    29.43R
HIBBING        NOT AVBL
ALEXANDRIA     MOCLDY    59  40  49 NW18G26   29.49F
SAINT CLOUD    CLOUDY    64  42  44 W13       29.45R THUNDER
MINNEAPOLIS    TSTM      75  42  30 S13G23    29.44F
$$

  *****  WEATHER ACROSS SOUTH DAKOTA  *****

CITY           SKY/WX    TMP DP  RH WIND       PRES   REMARKS
SIOUX FALLS    CLOUDY    64  39  39 NW5       29.59R
BROOKINGS      MOCLDY    63  39  42 NW14      29.58R
WATERTOWN      PTCLDY    56  36  47 NW10      29.59R
HURON          PTCLDY    61  28  28 NW18G24   29.63R
SISSETON         N/A     59  32  36 NW20      29.56R
ABERDEEN       MOCLDY    61  27  27 NW22G28   29.64R
MITCHELL       MOCLDY    64  32  30 NW21      29.62R
PIERRE         MOCLDY    55  23  28 NW13      29.72R
MOBRIDGE       CLOUDY    57  26  30 NW17      29.69R
RAPID CITY     PTCLDY    50  19  29 NW15      29.81R
$$

  *****  SOME WEATHER IN NEARBY STATES *****

CITY           SKY/WX    TMP DP  RH WIND       PRES   REMARKS
GLASGOW MT     PTCLDY    49  25  39 SW12      29.69F
GREAT FALLS MT PTCLDY    46   4  17 W24       29.84R
CHEYENNE WY    CLOUDY    53   7  15 NW20G31   29.82R
SCOTTSBLUFF NE CLOUDY    49  28  44 N20       29.84R
OMAHA NE       MOCLDY    77  50  38 S22       29.53F
DES MOINES IA  PTCLDY    74  48  39 S15G26    29.64F
DAVENPORT IA   PTCLDY    68  32  26 S23G31    29.78F
CHICAGO IL     PTCLDY    65  38  36 S17       29.87R
EAU CLAIRE WI  PTCLDY    72  31  22 S16G28    29.52F
LA CROSSE WI   PTCLDY    73  34  23 S20G31    29.58F
$$

  *****  SOME NATIONAL WEATHER *****

CITY           SKY/WX    TMP DP  RH WIND       PRES   REMARKS
LA GUARDIA NY  CLEAR     46  21  37 NW9       30.18R
RALEIGH NC     PTCLDY    55  30  38 SE6       30.20R
ATLANTA GA     PTCLDY    72  47  40 CALM      30.07R
NEW ORLEANS LA CLOUDY    74  64  71 S9        30.03R
OKLAHOMA CITY  PTCLDY    73  62  68 S18       29.71S
ALBUQUERQUE NM PTCLDY    72  22  15 W14       29.87R
SALT LAKE CITY MOCLDY    50   3  14 N7        30.03F
LOS ANGELES CA MOSUNNY   64  52  64 SW13      29.92S
BOISE ID       MOSUNNY   49  21  33 N15       30.09F
SEATTLE WA     PTSUNNY   46  40  79 S8        30.28R
$$

*** WEATHER ACROSS MANITOBA...SASKATCHEWAN AND ONTARIO ***
                ***ONTARIO***

CITY           SKY/WX    TMP DP  RH WIND       PRES   REMARKS
GERALDTON      CLOUDY    32  30  93 SE9       29.69F WCI  24
THUNDER BAY    CLOUDY    34  32  93 E18       29.56F WCI  23
SIOUX LOOKOUT  CLOUDY    39  28  65 SE10G17   29.42F
TORONTO        PTCLDY    36  16  44 SE6       30.10F
BIG TROUT LK   CLOUDY    39  27  60 E7        29.61F
PICKLE LAKE    CLOUDY    34  27  75 SE13G20   29.53  WCI  25
DRYDEN         PTCLDY    45  32  61 SE12      29.37F
KENORA         MOCLDY    54  34  47 S3        29.34S
$$
                *** MANITOBA***

CITY           SKY/WX    TMP DP  RH WIND       PRES   REMARKS
BRANDON        MOCLDY    45  36  70 W15       29.51R
DAUPHIN        PTCLDY    43  37  81 W15       29.46S
ISLAND LAKE    LGT RAIN  34  34 100 E12G22    29.50F
PILOT MOUND      N/A     46  36  66 W14G21      N/A
THE PAS        LGT SNOW  32  32 100 NE8       29.46R FOG     WCI  25
THOMPSON       LGT SNOW  14   9  79 NE18G26   29.71R DRFTSNOWWCI  -3
WINNIPEG       MOCLDY    48  41  76 W21G29    29.44R
LYNN LAKE      CLOUDY    14   7  73 NE17G25   29.80R WCI  -3
CHURCHILL      MOCLDY    -4  -8  84 N9        30.06R WCI -20
GILLAM         CLOUDY     9   5  85 NE16G25   29.80F WCI  -9
$$
                ***SASKATCHEWAN***

CITY           SKY/WX    TMP DP  RH WIND       PRES   REMARKS
ESTEVAN        MOCLDY    45  28  53 W13G28    29.60R
KINDERSLEY     NOT AVBL
LLOYDMINSTER   SNOWSHWR  30  28  93 N23G33    29.61R FOG     WCI  17
PRINCE ALBERT  CLOUDY    36  32  87 NE10      29.44R
REGINA         PTCLDY    43  28  56 W13       29.53F
YORKTON        CLEAR     43  30  61 W12G17    29.47F
N. BATTLEFORD  LGT RAIN  34  32  93 N16       29.49R WCI  23
LA RONGE       LGT SNOW  19  18  93 N17G29    29.67R VSB 3/4 WCI   4
SASKATOON      LGT RAIN  39  34  81 NW2       29.42F
SWIFT CURRENT  CLOUDY    37  25  60 W29G44    29.54S
$$
NOTE: THESE ARE AUTOMATED STATIONS WITH LIMITED QUALITY CONTROL
      "FAIR" INDICATES FEW OR NO CLOUDS BELOW 12,000 FEET WITH NO
      SIGNIFICANT WEATHER AND/OR OBSTRUCTIONS TO VISIBILITY.
      SKY/WX - SKY CONDITION AND SIGNIFICANT WEATHER.
      TMP - AIR TEMPERATURE.    DP   - DEWPOINT TEMPERATURE.
      RH  - RELATIVE HUMIDITY.  PRES - PRESSURE.
      HX  - HEAT INDEX.         WCI  - WIND CHILL INDEX.
$


USA.gov is the U.S. government's official web portal to all federal, state and local government web resources and services.